Location: Unspecified
(35.6961°N, 0.0000°E)
Time: 21:12:04
(UTC+00:00)

Vanguard 2 Rocket - Pass Details

Date: 30 May 2019
Orbit: 554 x 3326 km, 32.9° (Epoch: 17 June)

Event Time Altitude Azimuth Distance (km) Brightness Sun altitude
Rises 02:30:40 0° 225° (SW) 6,791 - -22.1°
Reaches altitude 10° 02:35:04 10° 221° (SW) 5,992 - -21.5°
Exits shadow 02:40:59 25° 212° (SSW) 5,011 10.0 -20.8°
Maximum altitude 02:53:58 53° 151° (SSE) 3,767 9.8 -19.0°
Drops below altitude 10° 03:10:51 10° 81° (E) 5,444 11.7 -16.6°
Sets 03:14:35 0° 77° (ENE) 6,163 12.2 -16.0°
